Wind_Speed
12 19 17 14 17 20 16 16 19 17 17 19 20 22 22 23 26 26 27 29 29 30 30 28 26 26 28 28 28 28 27 27 28 28 26 22 17 13 11 12 17 22 23 19 15 13 10 10 12 13 15 16 18 19 19 21 22 23 24 23 25 25 25 24 23 24 23 21 21 23 24 23 21 20 22 22 22 23 25 26 27 25 23 22 23
12 16 16 14 16 17 16 18 19 18 19 21 23 23 21 22 24 24 26 26 26 25 23 23 23 24 26 26 28 28 25 25 24 24 25 24 19 15 16 19 24 26 24 18 14 11 10 10 11 12 14 15 16 16 18 19 21 22 24 25 25 25 24 23 24 23 19 15 15 17 19 21 19 18 20 21 21 22 23 25 28 29 28 25 23
8 12 15 13 15 16 15 17 17 18 20 22 24 24 22 22 23 24 25 25 25 22 20 24 25 24 26 26 27 26 23 21 19 19 20 22 21 17 17 20 21 23 22 18 12 10 11 12 14 15 16 15 13 14 16 17 19 21 23 25 26 26 25 24 24 22 20 19 13 9 8 10 12 12 14 16 17 19 22 24 26 28 29 27 23
6 9 11 11 14 14 14 16 16 18 19 20 23 22 20 22 23 24 24 25 26 22 21 26 25 24 26 27 27 24 21 19 18 20 21 21 22 21 20 21 18 16 15 13 10 11 13 14 15 15 15 15 15 14 15 15 17 19 21 23 25 25 24 25 26 24 24 20 10 3 4 6 5 4 9 15 14 12 17 22 25 26 26 25 23
6 7 7 10 12 11 13 16 17 17 17 19 20 19 20 22 23 24 24 24 23 21 22 25 24 24 25 26 26 23 21 20 20 22 24 23 23 24 23 21 19 17 14 12 11 12 14 14 13 13 14 15 16 15 15 15 16 17 18 21 23 23 23 25 27 27 26 23 15 8 4 3 3 6 11 12 12 11 11 16 22 25 23 22 23
6 5 6 10 10 9 13 15 15 16 16 17 18 19 22 23 23 23 23 22 20 20 22 22 22 23 24 23 22 19 18 18 19 21 23 22 22 23 25 24 23 22 19 17 17 17 17 16 14 14 13 13 14 14 14 14 14 16 18 20 21 23 25 24 26 28 28 27 24 18 13 9 7 9 8 5 11 15 9 6 12 19 20 19 19
5 4 6 9 9 9 11 13 13 14 15 17 19 22 23 21 21 21 21 20 20 21 21 21 21 22 22 22 19 16 16 17 18 19 20 20 21 22 24 25 25 25 25 24 23 22 22 21 20 18 16 16 17 17 17 16 16 17 18 21 22 23 25 25 25 27 27 27 27 25 23 20 16 11 5 3 7 11 10 10 7 7 10 14 14
3 3 6 7 7 7 9 10 11 13 15 18 21 23 20 18 19 20 19 20 20 20 19 20 20 20 21 21 19 18 18 19 19 20 20 20 22 23 23 24 24 25 25 25 25 24 23 23 23 23 22 22 22 20 19 19 19 19 20 21 22 23 25 26 26 24 23 24 26 27 27 24 21 17 13 10 5 4 11 16 13 10 9 9 10
1 3 6 5 6 6 8 10 10 12 16 18 21 21 17 18 20 20 20 20 18 17 18 19 19 19 20 20 20 20 19 20 21 21 21 23 25 25 24 24 24 24 24 24 25 25 25 25 25 25 25 25 24 23 22 21 21 22 22 24 25 27 27 27 27 25 22 22 23 25 27 26 23 20 18 15 9 6 7 8 12 16 15 11 8
2 4 7 7 6 4 8 10 9 11 14 18 20 17 15 18 20 20 21 19 16 16 17 18 18 18 19 19 20 21 21 21 22 22 23 24 24 24 23 23 23 23 23 24 24 25 25 25 24 24 24 24 24 24 24 24 24 24 25 26 27 29 30 29 28 27 24 23 23 23 24 24 19 15 15 14 11 9 7 6 9 11 10 15 17
4 5 8 10 5 4 10 9 7 10 14 18 17 13 14 18 20 20 21 18 16 17 17 16 17 18 18 18 19 20 21 21 21 22 22 21 21 21 22 22 23 23 24 24 24 24 24 25 25 25 25 24 24 23 22 22 23 23 23 24 26 27 29 28 28 28 26 24 24 23 24 24 20 15 13 13 10 8 6 6 9 11 10 16 22
4 4 8 10 4 5 10 7 6 10 14 15 11 9 14 18 20 20 19 17 17 18 16 15 16 17 17 18 19 19 19 19 20 21 20 20 20 21 23 24 24 24 24 25 25 26 26 26 26 25 25 24 24 23 24 24 24 25 25 25 27 27 27 27 27 28 28 25 23 22 24 25 25 23 20 17 13 11 10 5 7 11 9 11 16
4 3 6 7 3 6 9 5 6 10 11 10 7 8 14 19 21 19 17 17 17 17 15 14 16 17 17 18 18 18 19 19 19 19 19 20 21 22 23 23 24 25 25 25 26 25 24 24 25 25 24 24 24 25 25 25 24 25 25 25 26 26 26 26 25 26 27 25 23 23 23 24 26 26 23 19 15 14 12 7 7 9 7 8 13
3 3 4 5 4 9 9 5 8 10 10 9 8 11 16 19 20 18 18 18 17 17 17 16 16 16 17 17 18 18 18 17 17 18 19 20 20 21 22 23 24 25 25 25 25 24 24 24 24 24 23 23 23 23 23 22 22 22 22 21 22 22 22 22 22 23 24 24 24 24 23 23 24 27 26 22 18 16 13 9 7 7 7 9 10
3 3 3 5 8 9 7 7 11 12 10 9 10 13 17 19 18 16 17 18 18 17 17 17 17 17 17 17 18 18 17 16 17 18 19 20 21 22 23 23 24 24 24 24 24 24 24 24 24 24 25 25 24 24 23 23 23 24 23 21 20 19 19 20 20 19 20 23 25 25 24 22 22 25 27 24 21 16 12 11 8 5 6 8 6
4 3 3 7 9 6 5 9 11 10 8 8 10 15 19 18 15 13 16 18 18 17 18 18 18 17 17 18 17 17 16 17 18 18 19 20 22 22 23 23 23 24 24 25 25 24 24 24 25 25 25 25 25 24 24 24 24 25 25 23 22 21 20 21 21 19 19 22 23 25 25 23 22 22 24 22 19 16 12 11 9 5 5 5 5
4 3 3 6 7 2 4 9 8 7 7 9 13 16 17 15 14 15 17 18 18 18 18 18 18 18 18 18 17 17 17 18 19 19 20 21 21 21 22 22 23 24 24 25 24 24 24 24 24 25 25 25 25 25 24 24 24 25 26 24 23 22 22 23 23 21 20 21 23 23 24 23 22 22 23 22 18 16 15 13 11 11 9 5 4
4 4 4 6 4 2 5 8 6 7 9 11 14 16 16 14 15 15 15 16 18 18 17 17 18 19 19 18 18 18 19 19 19 20 21 21 21 21 21 22 23 24 24 24 24 24 24 24 24 25 25 25 24 24 24 24 23 24 24 25 23 22 22 22 23 22 20 21 22 23 23 23 23 22 24 25 23 19 17 16 15 16 15 10 6
4 3 4 5 4 4 6 7 7 8 11 12 14 16 17 16 14 14 15 17 18 17 17 17 18 19 19 19 19 19 20 20 20 20 21 21 21 22 22 22 23 23 23 24 24 25 25 25 25 25 24 24 23 23 23 23 23 24 24 25 25 23 23 23 23 23 21 21 21 21 21 22 23 23 22 22 23 22 20 18 18 19 20 17 13
4 4 4 5 4 5 8 7 8 9 12 14 15 17 17 15 13 14 16 17 17 16 17 17 17 19 19 20 20 20 20 21 21 21 21 22 22 22 22 22 22 23 24 24 24 24 24 24 23 23 23 24 24 24 23 23 23 24 24 24 25 25 25 25 25 25 24 23 22 22 21 21 22 23 23 21 19 18 17 17 17 19 21 20 19
4 4 4 5 6 8 8 7 9 11 13 14 16 17 17 14 14 16 17 18 17 17 17 16 17 18 19 19 20 21 21 21 21 21 22 23 23 22 21 22 23 23 24 24 24 23 22 22 22 22 22 23 24 24 24 25 25 25 25 24 24 24 24 24 24 25 25 25 25 25 25 25 23 21 23 23 22 19 16 16 17 18 20 21 20
5 5 6 6 8 8 6 7 11 14 14 14 15 16 15 14 14 15 17 17 17 17 17 16 16 17 18 19 20 21 22 22 23 23 23 23 22 21 22 23 23 23 23 23 23 22 21 21 22 22 22 23 24 24 24 24 25 25 25 24 24 24 24 24 23 23 23 23 23 24 25 26 26 24 24 24 24 23 21 20 20 20 22 23 22
5 6 8 8 8 7 6 9 13 14 12 12 15 16 14 13 14 15 17 16 15 16 16 17 17 18 18 19 20 21 22 24 24 24 23 22 22 23 23 23 24 24 23 22 22 22 21 21 22 22 22 23 23 23 23 24 24 24 24 24 24 24 25 25 26 26 25 24 23 23 24 24 25 26 27 26 24 24 24 24 24 24 24 25 24
5 6 8 7 6 5 6 9 12 13 12 14 17 15 12 12 14 16 16 15 14 16 17 18 18 18 19 19 20 21 23 24 24 23 23 23 23 24 23 23 24 24 23 22 21 21 21 21 22 22 22 22 23 23 24 25 25 25 25 26 25 25 25 26 26 26 27 27 26 25 24 23 23 24 25 26 24 23 23 24 25 26 26 26 26
5 6 6 6 6 5 5 8 11 12 14 15 14 11 10 12 14 15 16 15 16 17 18 18 18 19 20 20 20 21 22 23 23 23 24 24 24 24 24 24 24 24 24 22 21 21 21 21 21 22 22 22 23 24 25 26 26 26 26 27 26 27 26 27 27 27 27 27 26 25 24 23 24 25 25 24 23 23 23 22 23 24 25 26 27
6 6 6 6 6 6 6 8 11 13 14 13 11 10 11 12 13 14 15 15 17 17 18 19 19 20 20 21 21 21 21 22 23 24 25 25 25 25 25 25 24 24 23 22 22 21 21 22 22 22 22 22 23 24 26 27 27 27 27 27 27 27 27 27 27 28 28 29 29 28 28 27 26 27 28 26 24 23 23 23 22 22 23 25 26
6 6 5 6 6 7 8 9 11 13 15 14 13 12 11 12 14 15 15 16 17 17 18 19 19 20 20 21 21 21 20 21 23 24 25 25 26 26 26 26 26 24 23 22 23 22 22 22 23 23 23 23 24 25 26 26 27 27 27 27 28 28 28 28 28 28 28 29 30 31 30 30 30 31 31 30 28 25 23 23 24 23 23 23 25
6 6 6 6 5 7 8 9 10 13 14 14 13 12 12 14 16 15 15 16 16 17 18 19 19 20 20 21 20 20 20 22 23 24 25 26 27 28 28 28 27 25 24 24 24 24 25 24 25 26 25 25 25 26 27 27 28 28 27 27 28 28 28 29 29 30 30 30 30 31 31 31 32 33 33 32 31 29 27 24 23 23 23 23 25
7 7 7 6 5 7 8 9 10 12 13 13 11 12 14 16 16 15 15 16 16 17 19 19 19 19 19 20 20 20 22 23 23 23 24 26 28 29 28 28 27 27 26 26 26 27 27 27 27 27 27 27 27 29 29 28 27 28 27 27 27 27 28 28 29 30 30 31 32 32 32 32 31 31 31 31 31 30 29 27 25 23 23 24 24
7 7 7 6 6 8 9 10 11 12 13 13 13 14 15 16 16 16 16 16 17 17 17 17 18 18 19 20 21 21 22 22 23 23 25 26 28 28 29 28 28 29 28 28 28 27 26 27 27 28 28 28 29 29 29 27 26 26 26 27 27 28 29 29 30 30 30 31 32 33 33 33 32 31 30 30 31 31 31 30 28 26 26 26 25
8 7 7 6 7 9 10 11 11 13 13 13 14 15 15 16 16 16 17 17 17 17 16 17 18 19 20 21 21 21 22 22 23 24 25 26 27 28 29 29 29 29 29 29 28 27 26 26 27 28 28 28 29 30 29 28 27 26 26 27 27 29 30 30 30 31 31 31 31 32 33 33 34 35 34 33 32 33 33 34 33 32 32 31 29
8 7 7 6 6 8 10 12 12 13 13 13 15 15 15 16 16 17 18 17 17 16 16 18 19 19 20 20 21 21 22 23 24 24 25 26 27 28 28 29 29 30 30 29 28 27 27 26 26 27 28 28 31 32 30 28 27 26 25 26 27 28 30 31 32 32 33 33 32 32 33 34 35 36 37 37 36 35 35 35 36 37 37 37 36
8 8 7 7 8 11 13 13 13 13 13 14 15 15 16 16 16 17 18 18 17 17 18 19 19 19 20 20 21 22 23 24 24 25 25 26 26 27 27 28 29 30 29 29 28 28 27 27 26 26 27 29 31 31 30 28 27 26 24 24 26 27 29 31 32 33 34 33 33 32 31 33 35 35 35 36 37 37 37 36 36 37 38 38 40
8 7 7 8 11 13 13 14 13 13 14 14 14 15 16 16 17 18 18 18 18 19 19 20 20 19 20 20 21 21 22 24 24 25 26 26 26 26 27 27 28 29 29 29 29 29 28 27 26 26 28 29 30 31 30 28 27 26 24 22 23 26 28 30 32 34 35 35 34 34 32 33 34 33 34 35 36 36 37 37 38 38 40 40 39
8 7 7 10 14 14 13 14 14 13 13 14 15 15 15 16 17 18 18 18 19 20 20 20 20 20 20 20 20 21 22 24 25 25 26 25 25 25 26 26 27 27 27 28 28 28 28 28 27 27 27 29 30 30 29 29 28 26 24 23 24 25 27 30 32 33 34 36 36 34 34 35 35 34 35 35 35 36 36 36 37 39 41 43 42
10 10 11 13 15 15 15 15 14 13 14 15 16 14 14 16 16 16 18 19 19 20 20 20 20 20 20 20 20 21 23 24 24 25 25 25 25 25 25 26 26 26 26 26 27 27 28 28 28 27 27 29 30 29 29 29 27 21 16 15 20 26 28 28 30 32 33 35 36 35 35 36 36 37 36 33 32 33 34 34 35 37 39 41 44
13 14 15 16 16 16 16 15 14 14 15 14 14 13 14 16 16 16 18 19 19 20 19 19 20 20 20 21 21 22 24 24 23 23 24 25 24 24 25 24 24 24 24 25 27 27 27 27 27 27 27 28 29 29 27 27 25 20 18 18 14 17 25 28 29 31 31 32 33 34 35 36 36 37 37 35 32 31 32 33 34 36 36 36 40
15 15 15 16 17 16 16 15 14 15 16 15 15 15 15 16 16 16 17 18 18 19 19 19 20 21 20 21 22 23 23 23 23 23 24 25 25 24 24 22 21 21 23 25 27 27 27 27 27 26 26 26 28 27 25 24 23 20 19 21 20 14 13 19 24 27 29 30 32 33 34 35 36 36 36 35 32 31 32 32 33 33 32 32 36
17 18 18 18 18 17 15 15 16 17 17 16 16 15 15 16 17 16 17 18 19 19 20 20 20 20 21 22 22 22 22 23 24 24 24 24 24 24 23 20 19 20 23 26 27 27 27 27 26 26 25 24 24 24 22 21 21 20 20 20 20 18 15 13 14 17 19 22 25 28 30 31 33 35 36 33 30 29 32 34 33 30 28 32 37
18 20 20 19 18 17 16 18 19 19 17 16 16 15 15 16 17 16 17 19 19 19 20 20 21 21 22 22 21 21 22 23 25 25 24 23 23 22 21 20 20 21 23 26 27 26 27 27 26 25 24 22 21 22 21 21 20 19 19 20 19 18 17 18 17 16 14 14 15 18 20 22 24 28 31 32 29 27 30 34 33 29 28 34 37
21 21 21 20 20 19 19 20 20 19 18 17 15 15 15 16 16 17 19 19 19 19 19 20 21 21 21 21 21 21 23 24 24 23 23 22 22 21 21 20 21 23 23 25 26 25 26 26 26 24 22 20 20 21 21 21 20 19 18 19 20 19 18 18 18 17 16 15 14 15 16 18 19 21 24 26 28 28 29 32 33 33 35 37 35
21 21 21 21 21 20 20 20 19 18 18 17 15 15 16 16 16 19 20 19 17 17 18 19 21 21 20 21 22 22 23 23 23 22 21 21 21 20 20 20 20 21 22 23 24 24 24 24 24 23 20 18 19 20 20 21 21 19 19 20 20 19 19 18 18 17 17 16 16 18 19 19 19 20 21 22 24 26 27 30 34 36 38 37 32
21 22 23 24 23 22 23 22 20 18 18 17 16 16 16 17 19 20 19 17 17 17 17 18 20 21 22 22 22 22 22 21 21 20 20 20 20 19 19 19 18 19 20 21 23 24 23 23 24 22 17 17 19 19 19 20 21 20 21 21 21 20 19 19 18 17 17 17 20 21 21 20 20 20 22 22 22 22 22 25 29 33 37 37 32
23 24 25 25 25 24 24 23 21 20 19 19 18 17 17 19 20 19 16 16 17 16 16 18 19 21 22 22 21 21 20 19 18 18 18 19 19 18 18 17 17 17 17 19 21 22 21 22 22 18 15 17 20 19 19 20 20 21 22 22 21 21 21 20 19 18 17 18 21 22 22 22 22 21 21 21 21 20 18 18 20 23 30 35 33
24 25 26 26 26 26 23 22 22 21 21 21 20 19 20 21 19 16 15 16 16 15 16 18 20 21 21 21 21 20 18 17 16 17 17 18 18 18 18 17 17 17 17 18 20 20 19 20 18 14 15 19 20 20 20 20 20 21 22 21 22 22 22 21 20 19 18 19 20 21 21 21 19 19 19 20 20 21 20 19 19 19 21 28 31
23 25 27 26 26 25 24 23 23 22 23 23 21 21 22 21 17 15 15 15 14 15 16 18 19 20 20 20 20 19 17 16 16 16 16 16 16 16 17 17 17 17 18 18 18 18 18 17 14 12 15 18 19 20 20 20 21 22 22 22 23 23 22 22 20 18 18 19 20 19 19 17 16 15 15 16 17 18 19 19 19 18 17 20 24
24 26 27 26 26 26 25 25 25 25 24 23 23 23 23 20 17 16 15 14 14 15 16 17 17 18 18 18 18 18 16 16 16 16 16 16 15 15 16 16 17 18 18 18 18 18 16 13 12 12 14 16 18 19 19 20 22 23 23 22 22 23 24 23 21 18 18 19 18 16 14 13 13 12 12 12 11 11 11 12 15 17 18 18 18
25 26 26 27 29 29 28 28 27 26 25 24 24 24 22 20 18 16 14 14 15 15 16 16 16 16 17 16 16 16 15 16 16 17 17 16 15 14 15 16 17 17 18 19 20 17 13 11 12 14 14 15 16 17 18 20 22 23 23 22 22 24 24 21 17 16 16 15 13 11 10 11 12 12 11 11 11 11 11 10 8 10 15 19 19
25 27 29 30 31 31 30 30 30 27 25 24 24 23 22 20 18 16 15 15 15 15 14 15 15 15 15 15 15 15 14 15 16 17 17 15 14 14 15 16 15 15 15 17 16 14 12 14 15 14 14 15 16 17 19 21 21 21 21 21 22 22 19 14 12 12 11 9 8 10 12 14 15 15 14 14 15 15 15 14 13 11 7 9 15
25 28 30 31 32 32 31 30 30 27 25 25 25 24 22 20 18 16 16 16 15 14 14 14 13 13 13 14 14 13 13 14 16 17 17 16 13 12 12 12 13 12 12 12 12 12 13 15 15 14 14 14 17 19 20 20 19 19 19 18 18 15 13 12 11 8 8 11 13 13 14 16 15 15 14 14 15 15 15 16 16 16 14 10 5
25 28 30 31 32 31 30 31 30 27 26 26 26 24 23 20 18 17 17 16 14 14 14 14 12 12 13 13 13 13 13 13 14 16 17 17 16 15 13 11 10 11 11 10 10 11 13 13 14 14 14 14 16 18 18 18 18 18 17 15 13 13 13 12 9 8 13 16 15 13 14 15 15 14 14 13 14 15 15 15 16 16 16 16 14
Wind_Direction
345 349 343 345 357 353 353 10 13 16 17 9 8 7 2 357 356 355 352 348 346 344 345 346 346 346 345 342 339 334 330 327 328 330 329 320 306 291 276 285 308 308 306 304 288 289 309 321 336 345 343 345 347 344 342 341 341 341 338 333 331 332 329 327 327 320 313 312 313 310 304 297 291 285 280 278 277 275 273 271 269 266 263 257 253
341 345 342 345 357 3 12 18 17 16 12 9 7 4 359 357 357 355 351 349 348 348 347 345 344 343 341 339 338 335 330 325 325 329 334 339 332 311 299 298 299 297 299 296 282 284 302 311 325 332 329 335 340 338 338 339 340 341 341 336 331 329 326 325 327 322 311 307 313 314 309 302 295 284 278 273 268 265 264 265 265 264 263 261 258
328 341 343 350 4 14 19 18 18 13 8 5 2 0 358 358 358 355 352 350 348 347 344 338 337 336 336 337 337 339 337 329 330 334 333 344 353 347 340 330 314 302 297 287 274 280 294 308 320 319 319 325 327 330 335 337 337 337 338 337 332 327 324 321 323 323 312 306 312 311 305 311 305 287 280 279 271 262 256 254 256 258 259 261 261
324 338 343 357 9 19 26 20 11 5 4 3 2 3 2 359 357 353 351 348 346 345 339 333 332 332 334 335 334 338 342 339 342 345 341 345 351 352 356 358 352 342 325 300 284 294 303 315 320 313 316 319 312 315 324 329 332 330 332 333 330 327 325 320 317 318 316 312 305 280 312 323 297 302 317 303 292 276 258 250 248 249 253 255 257
327 330 346 0 6 24 27 13 6 7 9 8 7 6 360 354 351 349 348 346 345 343 338 335 334 334 336 336 336 337 339 342 346 346 346 347 346 343 341 343 345 350 348 334 326 327 330 334 328 320 323 319 309 306 311 319 320 319 323 324 323 322 322 319 313 311 313 311 297 271 297 325 269 327 337 309 300 305 284 260 248 245 248 249 251
322 328 352 356 4 24 18 10 14 17 13 7 3 357 351 347 345 346 346 345 345 342 339 337 336 337 339 335 333 334 333 335 340 341 341 341 340 336 333 331 331 331 329 328 328 329 333 337 336 334 331 321 313 308 304 306 309 314 316 311 311 312 314 316 312 309 309 307 302 286 267 258 272 317 331 299 307 311 307 287 252 241 241 242 244
319 337 348 354 12 18 10 13 21 19 8 360 354 349 346 344 344 346 344 341 340 339 338 338 337 336 337 333 327 327 328 327 330 334 335 335 334 332 330 327 326 325 323 323 323 322 323 324 325 326 323 318 316 313 308 303 301 305 306 304 302 302 305 307 306 308 308 304 304 300 285 271 267 278 275 254 311 308 297 306 293 246 238 238 237
311 336 337 354 12 4 8 16 15 10 2 354 351 348 344 341 340 339 337 333 333 336 335 335 335 334 333 333 330 329 328 327 328 330 330 330 330 329 329 326 323 322 322 321 322 321 320 318 316 314 312 312 312 312 312 308 301 296 295 298 299 297 296 297 296 300 303 299 301 302 297 286 270 261 261 258 263 293 294 296 294 295 294 268 246
282 331 324 331 342 348 9 10 2 360 355 351 350 343 334 334 335 333 329 325 329 334 333 332 331 329 329 329 328 328 326 324 325 325 325 327 325 323 322 321 320 319 318 318 317 317 316 314 312 309 307 308 308 308 307 304 301 296 292 292 295 294 290 287 287 290 292 294 297 297 295 292 280 267 262 257 245 252 276 287 291 298 306 301 283
259 313 313 307 311 349 8 358 349 349 347 347 344 334 327 334 337 335 326 318 324 331 329 330 329 327 327 326 326 326 325 324 324 323 324 324 323 321 320 320 319 319 318 317 316 315 315 314 312 310 308 307 306 305 304 301 299 297 293 291 292 290 284 278 279 283 287 291 291 291 289 286 283 273 260 250 243 249 256 267 281 291 301 293 290
247 283 311 310 303 3 357 343 336 340 342 344 338 329 334 340 341 339 328 314 316 327 327 327 329 327 325 325 324 324 324 324 323 322 322 323 322 322 321 320 320 319 318 317 316 316 315 312 310 309 307 306 305 304 304 302 302 300 296 293 292 289 280 275 275 278 284 290 288 286 283 279 274 268 261 254 246 241 251 268 274 277 280 281 287
241 271 317 318 306 348 339 326 325 334 340 343 336 329 337 338 336 333 329 322 320 328 332 328 326 325 323 322 321 320 320 320 318 317 320 323 322 321 320 319 318 317 316 315 314 313 312 310 308 307 305 304 303 302 301 299 299 298 296 293 293 292 283 275 274 276 280 288 289 285 283 279 271 264 260 260 259 255 253 253 270 280 280 278 290
246 281 324 326 307 319 319 307 321 332 339 341 324 316 327 332 332 325 320 323 325 329 333 327 321 320 319 319 318 317 315 313 313 313 316 319 317 316 316 316 315 314 313 312 311 311 310 308 306 305 304 303 301 300 299 298 296 295 295 291 290 292 286 276 272 273 276 283 288 288 286 281 273 266 260 256 259 268 270 260 259 268 273 282 291
243 285 323 326 297 304 309 307 326 332 334 329 314 316 326 331 330 318 310 317 320 321 323 318 317 317 314 312 314 315 311 309 310 309 312 313 311 311 311 310 309 308 308 307 307 307 305 303 303 301 302 302 301 299 297 297 296 294 294 291 289 290 287 280 276 274 275 280 286 289 289 284 275 268 263 256 252 263 276 275 269 266 268 280 288
233 274 311 318 306 309 319 329 333 330 325 324 327 334 335 331 326 313 310 319 321 318 317 314 315 316 312 309 311 312 307 305 307 306 307 308 308 307 306 306 305 304 304 304 304 303 301 300 299 298 299 299 298 297 295 294 294 293 293 292 291 291 292 291 290 287 284 285 287 288 289 290 284 272 264 258 250 251 266 279 284 280 268 273 282
226 249 287 318 320 323 343 343 336 327 320 325 334 341 337 329 322 313 310 316 319 317 315 314 314 313 310 309 308 307 304 304 304 304 305 306 306 304 303 304 303 303 304 303 302 301 299 298 296 295 295 295 294 294 293 292 291 290 290 289 289 290 292 294 295 295 291 289 289 288 287 291 291 280 265 257 251 243 246 272 289 290 269 265 268
224 224 248 316 329 330 349 345 335 321 320 325 331 338 337 325 318 317 314 315 316 315 313 312 312 309 307 307 306 304 304 304 304 304 306 306 304 302 303 303 303 303 303 302 302 300 299 298 296 294 293 292 291 290 290 289 288 287 285 285 286 286 288 289 291 293 291 289 289 288 286 287 291 287 271 259 257 250 242 252 275 287 284 276 266
223 223 244 307 317 263 329 336 319 311 318 323 328 332 334 325 316 316 316 315 316 314 312 311 309 307 306 305 304 303 304 303 302 303 304 304 302 302 303 303 303 303 302 302 301 299 299 298 295 294 292 290 288 286 286 286 285 284 283 283 284 284 285 286 287 289 289 288 287 285 285 284 288 292 280 264 261 262 256 252 263 280 286 282 276
226 217 243 289 276 246 301 310 296 307 316 319 322 325 328 325 316 312 312 313 312 311 310 309 307 306 305 304 303 303 303 302 302 303 303 302 301 302 303 302 303 303 302 302 301 300 299 298 295 293 291 289 287 285 284 283 282 282 282 281 282 282 282 283 284 285 285 285 283 284 287 285 285 291 287 270 260 262 262 258 263 273 280 279 274
223 206 231 260 249 265 291 291 291 308 313 314 315 318 322 319 310 309 310 311 309 307 307 306 305 306 304 303 303 303 303 302 302 303 302 301 302 302 302 302 303 303 303 302 301 300 299 297 295 293 291 289 287 285 283 282 280 280 279 279 280 280 281 281 280 280 279 278 279 282 286 287 287 290 288 278 265 261 260 259 264 271 276 275 270
216 206 220 237 254 279 291 286 297 306 305 306 310 312 313 307 302 308 311 311 309 308 306 302 303 305 303 302 303 303 303 303 302 302 301 301 302 302 302 303 304 303 303 302 300 298 297 295 293 291 290 288 286 284 282 279 277 276 275 275 276 277 278 279 278 277 275 274 274 277 279 281 284 289 290 284 273 265 261 258 260 268 274 274 270
213 205 212 234 261 280 288 292 305 308 302 301 307 306 301 296 298 306 309 308 307 307 305 303 304 304 302 302 302 303 303 303 303 302 301 302 302 302 304 305 304 303 303 301 298 297 295 293 291 290 288 286 285 284 282 278 274 272 271 271 271 272 274 275 276 276 276 275 274 274 274 275 278 281 285 287 281 270 261 258 258 262 270 274 273
211 202 214 238 258 268 285 305 315 314 303 302 307 300 288 287 295 304 306 302 302 305 305 305 305 304 303 304 303 303 304 304 303 302 301 302 303 304 305 305 304 304 303 300 297 296 294 291 290 288 287 285 283 282 281 278 275 272 271 269 269 269 269 270 272 273 275 277 277 276 275 275 277 278 278 280 282 275 263 257 256 258 264 269 272
210 204 219 238 247 260 291 311 319 315 302 303 305 294 282 289 300 305 304 299 300 305 305 305 304 304 304 303 303 304 304 304 303 302 303 304 305 306 306 305 304 304 302 299 296 294 292 290 288 287 285 284 282 281 280 278 276 275 272 270 269 268 267 267 268 269 272 273 274 274 274 275 277 280 279 276 275 273 265 257 253 253 256 260 264
216 216 228 230 230 252 285 301 309 305 299 305 305 291 289 301 304 304 303 301 304 306 305 304 304 305 305 303 303 304 304 303 303 304 305 305 306 306 306 306 305 304 301 298 296 294 291 289 287 286 285 283 282 281 279 278 276 275 272 270 268 266 265 265 265 267 268 269 269 270 272 275 276 278 281 280 275 268 262 256 251 250 251 253 256
224 224 226 219 221 242 271 295 303 295 291 296 296 290 297 302 303 304 303 302 306 306 304 304 304 305 304 304 304 304 304 304 304 306 307 306 307 307 306 306 305 304 301 297 295 293 290 288 286 285 283 281 280 280 279 278 276 273 271 268 266 264 263 263 263 263 264 265 267 269 271 272 273 274 275 278 279 274 265 257 250 249 250 250 252
225 222 218 216 224 244 267 292 302 294 287 284 285 288 294 301 307 308 304 303 304 304 304 304 303 303 303 303 304 303 303 305 306 307 308 307 307 307 307 307 305 303 299 297 295 293 290 288 286 285 284 283 282 280 278 276 274 272 269 266 264 262 261 261 261 261 261 261 263 265 268 269 268 269 269 270 273 274 271 262 252 248 249 249 249
225 220 218 220 229 244 262 282 298 300 294 286 286 289 295 305 309 307 304 303 303 304 305 305 303 302 303 304 304 304 304 306 307 308 308 308 308 308 308 307 306 303 299 296 295 294 293 290 288 289 288 286 284 282 279 277 274 272 268 264 262 260 259 259 258 259 259 259 260 261 263 265 266 266 265 264 264 266 269 267 257 247 246 249 249
236 230 225 223 230 239 253 271 287 299 299 293 292 295 301 307 306 303 300 300 302 303 304 302 301 300 302 303 304 304 305 307 308 308 308 309 309 309 309 308 306 304 301 299 298 297 295 293 292 293 293 291 288 285 283 279 274 272 267 262 260 257 256 256 256 256 257 256 257 257 258 259 261 262 260 258 258 259 260 261 259 251 245 249 251
237 232 225 219 225 234 248 264 275 287 292 290 293 299 304 305 302 299 298 298 302 303 300 299 298 299 302 303 304 305 306 307 308 308 309 310 310 311 310 308 307 305 304 304 302 300 297 294 294 296 295 293 290 288 286 280 272 269 266 261 257 255 253 252 251 252 253 253 253 254 254 254 254 255 255 254 254 254 252 252 253 251 246 247 251
239 231 221 217 223 232 243 254 266 281 286 286 293 302 302 300 297 296 297 300 302 300 297 298 298 299 302 304 304 306 307 307 307 309 310 311 311 311 310 309 308 307 307 306 304 302 299 297 297 297 296 294 292 292 290 282 274 271 267 261 256 253 251 249 248 247 248 249 250 250 251 252 251 251 252 253 253 252 251 249 248 247 247 246 247
242 229 218 218 221 226 238 248 261 277 283 287 296 301 298 294 293 294 298 301 300 297 297 298 299 300 302 303 305 306 306 307 308 309 310 311 311 311 310 310 309 309 309 307 304 302 301 301 300 299 299 298 298 299 295 285 277 274 270 264 257 252 249 247 246 246 246 247 247 248 248 248 249 249 250 251 253 251 250 248 245 245 246 245 243
241 229 219 220 224 228 236 244 254 270 280 286 291 294 292 290 291 295 298 298 296 296 297 298 299 300 301 302 304 305 306 308 309 310 310 311 311 310 310 310 310 310 310 307 305 304 303 304 303 302 302 302 302 305 303 294 284 278 272 266 259 253 248 246 245 245 246 246 246 246 246 246 247 247 247 248 250 251 250 248 246 245 246 246 244
232 223 215 217 225 231 235 239 251 268 276 279 282 284 284 285 290 296 296 294 294 296 297 298 299 299 299 302 303 305 306 307 309 311 311 311 311 310 310 311 310 310 309 307 307 308 307 307 306 305 305 305 307 311 310 301 291 284 277 268 260 254 250 247 246 246 246 246 247 245 245 247 247 245 244 243 244 246 247 247 246 245 246 247 246
228 220 215 217 222 227 231 238 255 269 271 272 276 278 278 283 291 294 292 292 294 295 296 297 297 298 299 302 303 304 306 307 309 311 310 310 310 310 311 311 310 309 307 307 308 309 309 310 310 309 308 308 313 318 314 305 300 294 282 268 258 252 249 248 247 247 246 247 248 247 246 249 250 247 245 242 240 241 242 242 244 244 244 245 245
221 216 218 221 224 229 234 244 259 267 266 268 271 271 276 285 290 288 288 291 294 294 295 295 296 298 300 301 303 305 306 307 309 310 309 309 310 310 311 312 311 309 307 306 308 309 309 311 312 313 311 309 316 325 322 317 320 321 312 292 266 249 244 245 246 247 247 248 248 246 246 249 251 252 250 244 238 237 238 237 239 242 243 244 244
221 222 227 229 232 236 239 248 258 258 258 262 263 266 277 285 285 284 287 291 292 291 292 293 295 298 300 301 303 305 306 307 308 308 308 308 309 309 311 313 310 307 306 307 308 308 309 311 312 314 313 311 317 326 326 325 335 352 4 359 327 266 244 242 245 247 247 248 248 246 246 248 250 254 256 251 240 234 234 234 236 239 241 243 244
218 220 223 226 230 233 237 246 249 248 252 255 256 266 278 282 282 284 287 289 289 289 290 292 295 298 300 302 304 305 305 305 306 306 306 306 308 309 311 312 307 304 305 306 307 307 309 311 312 313 316 313 315 323 327 327 336 353 5 7 2 340 281 255 253 254 252 250 250 250 248 247 248 253 259 258 247 236 231 232 234 236 237 240 245
218 219 220 220 224 229 234 239 240 243 249 249 252 266 277 277 278 282 284 284 284 286 290 293 295 298 299 302 304 304 304 303 304 305 305 306 307 308 310 309 303 301 303 305 307 306 307 311 313 314 317 316 316 324 330 329 334 348 358 1 360 355 342 316 296 285 273 263 261 259 255 251 251 254 258 260 254 241 231 230 232 233 233 239 245
214 218 222 221 220 224 225 228 234 241 245 245 252 266 270 270 275 279 278 278 281 287 293 294 295 297 300 302 303 302 302 303 303 305 306 307 307 306 307 306 304 303 304 305 306 305 305 309 314 315 317 320 324 329 332 331 333 339 348 354 353 348 342 333 326 322 314 302 294 285 276 271 269 265 260 258 255 245 233 230 230 227 230 241 247
212 213 216 216 218 223 226 232 238 240 240 243 252 262 264 267 272 271 271 277 284 290 293 294 295 298 299 300 302 302 303 305 305 306 306 307 307 306 305 305 306 307 306 306 306 307 306 309 313 315 318 323 330 332 331 330 333 335 339 345 346 341 334 328 326 325 321 315 313 309 301 294 289 284 277 268 260 251 240 230 226 226 234 244 247
212 212 212 212 216 221 226 233 236 234 237 242 248 255 260 262 262 264 272 282 287 289 292 294 296 297 298 300 303 306 308 308 308 308 306 306 309 309 306 307 308 308 308 307 308 309 308 310 314 315 316 323 331 332 330 329 330 330 333 336 335 332 330 329 326 321 317 316 315 313 308 301 292 290 288 282 273 264 252 237 228 228 236 243 240
204 208 211 213 216 220 224 229 231 232 237 239 242 248 253 253 257 266 277 283 283 286 291 293 294 296 299 303 307 310 312 311 311 312 308 306 309 310 309 310 310 309 309 309 311 312 311 312 314 312 313 325 332 330 328 329 328 326 327 329 328 327 328 329 324 315 313 316 314 310 307 303 298 295 291 285 283 279 268 254 241 232 233 237 234
205 209 212 212 215 219 224 228 230 233 235 235 237 242 244 248 257 270 277 277 281 288 290 291 294 297 301 307 310 313 316 316 316 316 310 307 310 311 311 312 311 309 309 309 311 313 313 311 308 307 317 331 333 330 327 326 326 325 324 324 324 325 327 327 323 316 313 313 309 306 305 302 301 300 297 292 290 289 285 279 269 249 235 231 228
209 211 211 212 215 219 221 224 228 229 230 233 237 237 239 247 258 268 271 273 280 286 287 289 294 298 304 310 313 316 320 322 322 319 312 309 312 313 313 313 313 312 310 308 309 310 307 300 296 305 326 331 329 328 327 327 326 325 324 324 324 324 325 325 322 316 312 310 306 304 305 305 304 301 297 293 290 288 285 284 282 273 251 235 226
209 209 210 211 214 217 219 221 225 228 229 234 237 235 238 247 257 262 265 270 275 279 283 288 294 300 307 312 315 319 324 325 323 320 315 313 313 313 312 313 314 313 311 308 306 302 296 292 296 314 329 329 327 327 326 326 327 326 324 324 324 324 324 323 319 315 312 310 309 307 307 310 313 312 306 300 295 292 288 279 273 273 267 249 233
209 209 209 208 208 211 215 219 224 227 229 231 234 236 240 246 251 255 259 264 267 271 278 285 293 301 308 313 316 318 320 321 322 322 321 319 318 315 313 311 311 310 307 304 300 294 290 296 314 328 330 329 328 326 324 325 325 323 323 324 325 325 323 318 316 318 319 316 313 313 314 317 320 320 318 316 314 313 309 294 276 268 264 255 243
211 209 206 205 207 211 214 219 223 226 228 229 232 237 239 241 245 248 250 253 259 266 273 281 291 299 306 311 315 314 314 317 321 323 321 320 320 318 314 310 309 305 297 294 295 296 305 326 336 336 334 331 325 322 323 323 322 321 324 326 326 323 318 317 322 328 326 319 319 325 334 342 347 348 347 347 349 352 354 351 329 290 264 249 244
209 208 207 207 210 213 215 219 224 227 226 227 231 235 237 238 240 241 239 245 255 262 268 276 286 295 302 308 311 312 315 318 319 321 322 320 319 317 312 311 312 308 299 299 306 319 339 348 345 341 336 330 324 322 323 322 322 324 327 328 326 323 323 335 347 342 334 341 4 13 12 11 12 10 8 5 3 2 2 6 10 5 331 261 243
209 208 209 210 214 217 218 222 226 227 225 226 230 233 235 236 236 234 234 240 248 255 262 271 280 289 297 304 307 310 316 319 319 321 322 320 320 320 315 313 316 317 316 319 327 339 347 347 345 345 340 330 324 324 326 328 329 331 331 331 332 336 351 5 4 5 28 38 36 29 23 19 16 13 9 5 2 2 3 4 6 11 17 14 330
208 204 204 210 215 218 220 224 226 225 224 226 229 231 232 233 231 230 232 236 240 245 255 264 272 281 291 298 302 306 311 314 318 321 320 319 324 329 330 328 326 327 333 338 342 347 349 347 345 344 341 336 331 331 334 336 337 339 339 341 349 5 16 15 15 39 51 43 34 30 24 18 16 15 10 4 1 359 359 360 2 6 11 16 15
Height
892 891 890 888 887 886 886 885 884 882 880 878 877 875 874 873 871 870 868 867 866 865 863 863 862 860 859 857 855 854 852 851 849 847 846 844 842 842 841 840 840 840 839 839 839 839 838 837 836 836 835 835 834 833 832 831 830 829 827 826 825 824 822 822 821 820 818 816 814 811 810 809 809 808 807 806 805 804 803 803 804 805 805 805 806
892 890 888 888 886 885 885 884 883 882 880 879 877 876 875 873 871 870 869 868 867 866 865 864 864 863 861 859 856 854 852 851 849 847 845 843 842 841 840 839 839 838 838 837 838 838 837 836 835 834 834 834 833 833 832 831 830 829 827 826 825 824 824 823 822 821 819 817 815 812 808 806 805 805 804 803 803 803 803 803 803 804 804 804 805
890 888 886 886 886 884 883 883 882 881 880 878 877 876 874 873 872 870 869 868 867 866 865 864 863 862 860 858 856 854 852 850 849 847 845 843 841 840 839 838 837 837 837 836 837 838 837 835 833 833 833 832 832 832 832 831 830 830 828 827 826 824 823 823 822 822 821 819 817 815 811 806 803 802 802 801 801 801 801 802 802 803 803 803 805
888 886 886 885 885 884 883 882 881 880 879 877 876 875 874 873 872 871 869 867 866 865 864 863 861 860 858 856 855 852 851 849 847 845 843 842 841 840 839 838 837 837 837 837 837 838 837 835 833 832 832 831 832 831 831 830 830 830 829 828 827 825 824 822 821 822 821 820 819 816 814 811 807 804 801 800 799 799 799 799 801 801 802 803 804
886 885 885 885 884 883 882 881 880 879 878 876 876 874 874 873 871 870 868 866 865 864 863 861 860 858 856 854 852 850 849 847 846 844 842 842 840 840 839 839 838 838 837 837 837 838 836 834 833 831 831 831 831 830 830 829 829 829 829 828 828 827 825 823 821 820 821 821 820 818 816 815 811 807 805 801 798 799 798 797 798 800 801 802 802
885 884 884 883 882 882 880 880 878 877 877 876 875 874 872 872 870 869 867 866 865 863 862 861 859 857 855 854 852 850 849 847 846 844 843 842 841 840 839 838 838 838 837 837 836 835 834 833 832 831 830 831 830 830 829 828 828 828 828 828 827 827 826 823 821 819 819 818 818 817 816 815 811 810 811 806 799 798 798 797 797 798 800 800 800
884 883 882 882 881 880 879 878 877 876 876 875 873 872 871 870 869 868 867 865 864 862 861 860 858 857 855 854 852 850 849 847 846 845 843 842 841 839 838 836 836 836 835 835 834 833 832 831 830 830 829 829 829 828 827 827 826 827 827 827 826 826 825 823 821 820 818 816 815 814 813 812 811 811 812 810 805 800 797 797 797 798 798 798 797
882 882 881 880 879 878 877 876 875 874 873 872 871 871 870 869 868 867 865 864 862 861 860 859 858 856 855 853 852 850 848 847 845 844 842 841 840 838 837 836 835 834 833 832 831 830 830 828 828 827 827 827 827 826 826 825 825 825 825 825 825 825 824 823 821 821 819 816 814 813 810 810 809 809 809 810 809 805 799 796 796 795 795 795 794
880 880 879 878 877 876 876 874 873 872 871 870 870 869 868 868 867 866 864 863 861 860 859 858 857 855 854 852 851 849 847 846 844 843 841 839 838 836 836 835 834 833 832 830 829 829 828 827 826 826 825 825 824 824 824 823 823 823 823 823 823 822 822 821 819 819 819 817 815 813 810 808 806 806 806 806 807 806 801 798 796 795 793 793 793
878 878 877 876 875 874 874 872 871 869 869 868 868 868 867 867 866 864 863 861 860 858 857 856 856 854 853 851 850 848 846 844 842 841 839 838 836 835 834 834 832 831 830 829 828 827 826 826 825 824 824 823 823 822 821 821 821 821 820 820 820 819 819 818 817 817 816 815 815 813 810 807 805 803 803 803 804 803 801 798 797 796 795 793 792
876 876 875 874 873 872 872 870 869 867 866 866 866 866 866 865 864 862 862 861 859 857 855 855 854 853 852 850 849 847 845 843 841 839 838 837 835 834 833 832 831 830 829 828 827 826 825 824 823 823 822 821 821 820 820 819 818 818 818 818 817 817 816 815 814 814 814 813 813 812 810 807 805 802 801 801 801 800 799 797 796 796 795 793 792
874 873 872 872 871 870 870 868 867 865 864 864 863 863 864 863 862 861 860 859 858 856 854 853 853 851 850 849 847 846 844 842 840 839 837 836 835 833 832 831 829 828 827 826 825 824 823 822 822 821 820 819 819 818 817 817 816 816 815 815 815 814 813 813 811 810 810 810 810 809 807 805 804 802 800 799 799 798 798 796 795 795 794 792 791
872 871 870 870 870 868 868 866 865 864 863 862 862 861 861 861 860 859 859 858 856 855 854 852 851 850 849 847 846 844 843 841 839 838 836 835 834 833 831 830 828 827 826 825 824 823 822 821 820 819 818 818 817 816 815 815 814 814 813 812 812 811 810 810 808 807 807 807 807 806 804 803 801 800 799 798 797 797 796 795 795 794 793 791 791
868 868 868 867 868 867 865 864 863 863 862 861 861 860 860 859 858 858 857 856 855 854 853 851 850 848 847 846 844 842 841 839 838 837 835 834 833 831 830 829 827 826 825 824 823 822 821 820 819 818 817 816 815 814 813 813 812 811 811 810 810 809 808 807 805 804 804 804 804 804 802 800 799 798 798 796 795 795 795 795 794 793 792 791 790
865 866 865 865 865 865 864 863 862 863 861 860 860 859 858 857 857 856 855 855 854 852 851 850 848 846 845 844 842 841 839 838 837 835 834 833 831 830 828 827 826 824 823 822 821 820 819 818 817 815 814 813 813 812 811 810 810 809 808 808 807 807 806 804 803 802 801 801 801 800 799 797 796 795 795 794 793 792 793 794 793 793 791 790 789
863 863 863 863 864 863 863 863 862 862 860 860 859 857 856 856 855 854 853 853 852 851 849 848 846 845 844 842 841 839 838 836 835 833 832 831 829 828 826 825 824 822 820 819 818 817 816 815 814 813 812 811 810 809 809 808 807 806 806 805 805 804 803 802 801 800 798 798 798 797 796 794 793 793 792 792 791 790 791 792 792 793 792 790 789
860 861 861 861 861 862 862 861 860 860 859 858 857 855 855 855 854 852 851 851 850 849 848 846 845 843 842 841 839 838 837 835 833 831 830 829 827 826 824 823 821 820 818 817 815 815 814 812 811 810 809 808 807 806 806 805 805 804 803 802 802 801 801 800 799 797 796 796 796 795 794 792 791 790 790 790 789 788 789 790 790 791 792 791 790
857 858 859 859 859 860 860 859 858 857 857 856 855 854 853 853 852 851 850 849 848 847 846 844 843 842 840 839 838 836 835 833 831 830 828 826 825 823 822 820 819 817 816 814 813 812 811 810 808 807 806 805 804 803 803 802 802 801 800 799 799 799 798 797 796 795 794 794 794 793 791 790 788 788 787 787 787 787 786 787 787 789 791 791 790
855 856 857 857 857 857 857 856 856 855 854 853 852 852 851 851 850 849 848 847 846 845 844 842 841 840 839 837 836 835 833 832 830 828 826 824 822 821 820 818 816 815 813 812 810 809 807 806 805 804 803 802 801 800 800 799 799 798 797 796 796 796 795 794 794 793 792 792 792 790 789 788 787 786 785 784 784 784 784 783 784 786 788 790 790
852 853 854 854 854 854 854 854 853 853 852 851 850 849 849 849 848 847 846 845 844 843 841 840 839 838 837 835 834 833 831 830 828 826 824 822 821 819 817 815 814 812 811 809 807 806 804 803 802 801 800 799 798 797 797 796 796 795 794 793 793 793 792 791 791 790 790 790 789 788 787 787 786 784 783 782 782 781 780 780 781 784 786 788 789
850 851 851 852 852 851 851 851 851 850 849 848 847 847 846 846 846 845 844 843 842 841 839 838 837 835 834 833 832 831 829 827 826 824 823 820 819 817 815 813 811 809 808 806 804 803 802 800 799 798 797 796 795 794 793 793 792 791 791 790 790 790 789 788 788 787 787 787 787 786 785 785 784 783 782 781 780 779 778 778 780 782 784 785 786
847 848 848 849 849 849 849 849 848 847 846 845 845 844 843 843 843 842 842 841 839 838 837 836 834 833 832 831 829 828 827 825 824 822 820 818 816 815 813 811 809 807 805 803 802 800 799 798 796 795 794 793 791 791 790 789 788 788 787 787 786 786 786 785 785 784 784 784 784 783 783 782 782 782 781 780 779 778 777 777 778 780 781 782 783
844 845 845 846 845 846 846 845 846 845 844 843 842 842 841 840 840 840 839 838 837 836 835 833 832 831 829 828 827 826 824 823 821 819 818 816 814 813 811 809 806 804 802 801 799 798 796 795 793 792 790 789 788 787 787 786 785 784 784 783 783 783 782 782 782 781 781 781 781 781 780 780 780 780 779 778 777 776 776 776 776 778 779 780 781
842 841 842 843 842 843 843 843 843 842 841 841 840 839 839 838 838 837 836 836 834 833 832 831 830 828 826 826 824 823 822 820 819 817 815 814 812 810 808 806 804 802 800 798 797 795 793 792 790 789 787 786 785 784 783 782 782 781 780 779 779 779 778 778 778 778 778 778 778 778 778 778 778 777 776 776 776 775 774 774 774 776 777 778 779
839 839 839 840 840 840 841 840 840 840 839 839 837 837 836 835 835 834 833 833 831 831 830 828 827 825 824 823 821 820 819 817 816 815 813 811 809 808 806 804 802 799 797 796 794 792 791 789 787 785 784 782 781 780 779 778 778 777 776 775 775 775 775 774 774 774 775 775 774 774 775 775 776 775 774 774 774 774 773 773 772 773 774 776 777
835 836 836 837 837 837 838 837 837 837 837 836 835 834 833 832 832 831 830 829 828 828 827 825 824 822 821 820 818 817 816 814 813 812 810 809 807 805 803 801 800 797 795 793 791 789 787 785 783 782 780 779 777 776 775 774 773 773 772 772 771 771 770 771 771 771 771 771 771 771 771 772 773 772 772 772 772 772 771 771 770 770 772 773 774
832 833 833 834 834 834 834 834 834 834 834 833 832 831 830 829 829 828 827 826 825 825 824 823 821 819 818 816 815 814 813 811 810 808 807 806 804 803 801 799 797 795 792 790 788 786 784 782 780 778 777 775 774 773 771 770 769 768 768 767 767 767 767 766 767 767 767 767 767 767 768 768 769 769 769 769 769 769 769 768 768 768 769 771 771
829 830 830 830 831 831 831 831 831 831 831 831 830 829 828 827 825 825 824 823 822 821 820 819 818 816 815 814 812 812 810 808 807 805 804 803 801 800 798 796 794 792 790 788 786 783 781 779 777 775 773 772 770 768 766 765 764 763 763 763 763 763 762 762 762 763 763 763 763 764 764 764 765 765 765 766 766 767 767 766 765 766 767 768 768
825 826 826 827 827 827 827 828 828 828 828 828 827 826 825 824 823 822 821 820 819 818 817 816 815 813 812 811 810 809 807 806 804 802 801 800 798 796 795 793 791 789 787 785 783 781 778 776 773 771 769 768 766 764 762 760 760 759 758 758 758 758 758 758 758 758 758 759 759 759 760 760 761 761 761 762 763 763 764 762 762 763 764 765 765
821 822 823 823 824 824 824 825 825 825 825 824 823 823 822 821 820 819 819 818 816 815 814 813 812 811 810 809 807 806 805 803 801 800 798 797 795 793 792 790 788 786 784 782 780 778 776 773 770 768 766 764 762 759 757 756 756 755 754 753 753 753 754 754 754 754 754 754 754 755 755 756 756 757 757 758 758 759 759 759 759 760 761 762 762
817 818 819 820 820 821 821 822 822 821 821 820 820 819 818 818 818 817 816 815 814 812 811 810 809 808 807 806 804 803 802 800 799 797 795 793 792 790 788 786 784 782 780 779 777 774 772 770 767 765 763 760 758 755 753 752 751 751 750 750 749 748 748 749 749 749 749 749 749 750 750 751 752 752 753 753 753 754 754 755 756 756 757 758 758
813 814 815 816 816 817 817 818 818 818 818 817 816 816 815 815 815 814 813 812 811 810 809 808 807 805 804 803 802 800 799 798 796 794 792 791 789 787 785 783 781 779 777 775 773 771 769 767 765 762 759 757 754 751 750 749 747 746 746 746 745 744 743 743 743 743 743 743 744 744 745 745 746 746 747 748 748 749 750 751 751 752 752 753 753
809 809 811 812 812 812 813 813 814 814 814 814 814 813 812 812 812 811 810 810 809 807 806 805 804 803 802 800 799 798 796 795 793 792 790 788 786 784 782 780 778 776 775 772 770 768 766 764 762 759 756 754 750 747 746 744 743 742 742 741 740 739 738 738 738 738 738 738 739 739 740 740 740 741 742 743 743 744 745 746 747 747 747 747 747
805 805 807 807 808 808 809 809 810 811 811 811 811 810 809 809 809 808 808 807 806 805 803 802 801 800 799 798 797 795 793 792 791 789 787 785 783 781 780 778 776 774 772 769 767 765 762 761 759 756 754 750 747 744 742 740 739 737 737 736 736 735 734 733 732 732 733 733 733 734 734 734 734 735 736 737 738 739 739 740 742 742 742 742 742
800 802 802 803 804 805 805 806 806 807 807 807 807 807 807 806 806 805 805 804 803 802 801 799 798 797 796 795 794 792 791 789 788 786 784 782 780 778 777 776 774 771 770 767 765 762 760 757 756 754 751 748 744 742 739 737 735 733 731 731 730 730 730 729 728 728 728 728 728 729 729 729 729 729 730 731 732 733 734 735 736 736 736 737 736
795 797 798 799 800 801 801 802 803 803 804 804 804 804 804 803 803 803 802 801 800 799 798 797 795 794 794 793 792 790 788 787 785 783 781 779 777 776 774 773 771 769 767 765 763 760 758 755 753 751 749 745 742 739 737 735 732 729 727 726 725 724 724 724 723 723 723 723 723 724 724 724 723 723 723 725 726 728 729 730 730 730 730 731 730
791 793 793 795 796 797 798 799 800 801 801 801 801 801 801 800 800 799 799 798 797 796 795 794 792 792 791 790 789 788 786 784 782 781 779 776 775 773 771 770 769 766 765 763 760 758 756 753 751 749 747 744 740 737 736 733 730 727 725 724 722 720 720 720 720 719 719 719 719 719 719 719 719 718 718 719 721 723 724 724 724 724 725 725 724
788 789 790 792 793 794 795 796 797 797 797 798 798 797 797 797 796 796 796 795 794 793 792 791 790 789 788 787 786 785 783 781 780 778 776 774 772 770 769 768 766 764 763 761 758 756 754 752 749 747 745 743 739 737 735 732 730 727 725 724 722 720 719 718 718 717 716 716 715 715 715 715 714 714 713 713 715 717 718 718 718 719 720 719 718
784 786 787 789 789 791 792 793 793 794 794 795 795 794 794 794 793 793 793 792 791 790 789 789 787 786 785 784 783 782 781 779 777 775 773 771 770 768 766 765 764 762 760 758 756 754 751 749 747 745 743 742 739 736 735 732 729 727 725 724 722 721 720 718 717 716 714 713 712 712 711 711 710 709 709 709 710 711 713 713 713 714 715 713 711
780 782 783 785 787 787 788 789 789 790 790 791 791 791 791 790 790 790 789 788 788 787 786 786 785 784 783 781 781 780 778 777 774 772 770 769 767 766 764 763 762 760 758 756 754 752 750 747 745 743 742 740 738 736 734 731 729 727 725 724 722 721 719 717 715 714 712 711 711 710 709 708 707 706 705 705 705 706 706 707 708 710 709 706 705
776 778 779 781 783 783 784 784 785 786 787 787 788 787 786 786 787 786 785 785 784 784 783 783 782 781 780 779 778 777 775 774 772 770 768 766 765 764 762 761 759 757 756 754 752 750 748 745 743 741 740 738 737 734 732 730 728 726 725 723 722 720 718 716 714 712 711 709 708 707 706 705 704 702 701 701 700 700 701 701 702 703 702 700 701
772 774 775 777 778 779 780 780 780 782 783 783 784 783 783 783 783 782 781 781 781 781 780 780 779 778 777 776 775 774 772 771 769 767 765 764 762 761 760 759 757 755 753 752 750 748 746 744 741 740 738 737 736 734 732 729 727 725 724 722 721 719 717 715 713 711 709 707 705 705 703 702 701 699 698 697 696 695 695 696 696 696 696 696 699
768 769 770 772 773 774 775 775 776 778 778 779 780 779 779 780 778 778 778 778 778 778 777 776 776 775 774 773 771 770 769 768 766 765 763 761 760 759 758 756 755 753 752 750 748 746 744 742 739 737 736 735 734 733 731 729 727 725 723 721 719 717 715 713 711 709 707 705 704 702 700 699 697 696 694 693 692 691 691 691 691 691 692 693 696
762 763 764 766 768 768 770 771 772 773 774 775 776 775 776 775 774 774 775 775 775 774 774 773 772 771 771 770 768 767 766 765 764 762 761 759 758 757 756 754 753 752 750 748 746 744 743 740 737 735 734 733 732 731 730 728 726 724 721 719 717 715 713 711 709 707 705 704 702 700 698 696 694 692 691 689 688 687 687 687 687 687 688 689 691
757 758 759 761 762 763 765 766 767 768 769 770 771 771 771 771 770 771 772 771 771 771 770 770 769 768 768 766 765 764 763 762 761 760 759 758 756 755 754 752 751 750 748 747 745 742 741 739 736 734 733 732 731 729 727 726 724 722 719 717 715 712 710 708 707 704 703 701 699 697 695 693 691 690 688 687 685 684 684 684 684 684 684 685 687
752 753 754 755 757 758 760 761 761 763 764 764 766 766 766 766 766 768 768 768 768 768 767 767 766 765 765 764 762 761 760 759 758 758 757 756 754 753 752 750 749 748 746 745 743 741 739 736 734 733 732 730 729 727 726 724 722 720 717 715 713 710 708 706 704 702 700 699 697 695 693 691 689 688 686 685 683 682 681 680 680 681 681 682 682
746 747 749 751 752 753 754 754 756 757 758 759 760 760 761 762 763 764 764 764 765 764 764 764 763 763 762 761 760 758 757 757 756 756 755 753 752 751 750 749 748 746 744 743 741 738 736 734 733 732 731 729 727 726 724 722 720 717 715 713 710 708 706 703 701 699 698 696 694 692 691 689 687 686 684 683 681 680 678 677 677 677 678 678 679
741 743 745 746 746 747 747 748 749 751 753 754 755 755 757 758 759 760 761 761 761 761 760 760 760 760 760 759 758 757 756 755 754 754 753 751 750 749 748 747 746 745 743 741 738 736 735 733 732 731 729 728 726 724 722 720 718 715 713 711 709 706 703 701 699 697 696 694 692 690 688 686 685 683 682 681 680 679 678 676 675 675 675 675 676
735 737 739 740 740 741 742 743 744 746 748 749 750 751 752 753 754 756 757 757 757 758 757 757 757 757 757 757 756 755 754 753 752 751 751 750 749 748 747 745 744 743 741 739 737 735 734 732 731 730 728 727 725 723 721 719 716 714 712 710 708 705 702 700 698 697 695 693 691 689 688 686 685 683 682 681 680 679 677 676 675 674 673 673 674
730 731 733 735 736 737 738 739 740 742 744 744 745 746 748 749 750 751 752 753 754 754 754 754 754 754 755 755 754 753 752 751 750 749 749 748 747 747 745 744 743 741 740 738 736 734 733 732 730 729 728 726 724 722 720 717 715 713 711 708 706 704 701 699 698 696 694 692 691 690 689 687 686 685 684 682 681 680 678 677 675 674 672 672 672
724 726 728 730 732 733 735 735 736 738 739 740 741 742 743 745 746 747 748 749 750 750 750 750 750 751 752 752 752 751 751 750 748 748 747 745 745 744 743 742 741 740 738 737 735 734 732 731 730 728 727 725 723 721 719 716 714 712 709 707 705 703 700 699 698 696 694 693 692 691 690 689 688 687 686 684 683 681 680 678 677 675 674 673 672